Location: Austin
(30.3000°N, 97.7500°W)
Time: 23:50:04
(UTC-05:00)

CZ-4B R/B - Pass Details

Date: 06 May 2026
Orbit: 808 x 880 km, 98.9° (Epoch: 13 May)

Event Time Altitude Azimuth Distance (km) Brightness Sun altitude
Exits shadow 22:17:34 44° 182° (S) 1,203 3.7 -24.4°
Maximum altitude 22:19:26 76° 257° (WSW) 908 3.3 -24.7°
Drops below altitude 10° 22:25:06 10° 343° (NNW) 2,536 6.4 -25.6°
Sets 22:27:30 0° 345° (NNW) 3,474 7.2 -26.0°
